Location: Grovedale
(55.0253°N, 118.8649°W)
Time: 18:29:25
(UTC+00:00)

SHERPA-FX2/TAGSAT-2 - Visible Passes

Search period start: 11 August 2022 00:00
Search period end: 21 August 2022 00:00
Orbit: 509 x 529 km, 97.6° (Epoch: 10 August)

Date Brightness Start Highest point End Pass type
(mag) Time Alt. Az. Time Alt. Az. Time Alt. Az.
11 Aug ? 07:37:47 10° ENE 07:39:06 11° NE 07:40:24 10° NNE visible
11 Aug ? 09:10:46 31° SE 09:12:29 67° ENE 09:16:20 10° N visible
11 Aug ? 10:45:51 14° WSW 10:47:03 16° W 10:49:29 10° NW visible
12 Aug ? 08:56:56 26° SE 08:58:44 49° ENE 09:02:29 10° N visible
12 Aug ? 10:32:00 19° WSW 10:33:07 21° W 10:36:06 10° NW visible
13 Aug ? 08:43:05 22° ESE 08:45:00 37° ENE 08:48:35 10° N visible
13 Aug ? 10:18:10 24° WSW 10:19:12 28° W 10:22:35 10° NW visible
14 Aug ? 08:29:14 18° ESE 08:31:17 28° ENE 08:34:37 10° N visible
14 Aug ? 10:04:19 31° SW 10:05:19 37° W 10:08:56 10° NNW visible
15 Aug ? 08:15:23 14° ESE 08:17:35 22° ENE 08:20:36 10° N visible
15 Aug ? 09:50:27 39° SSW 09:51:27 51° W 09:55:14 10° NNW visible
16 Aug ? 08:01:31 11° E 08:03:54 17° ENE 08:06:30 10° NNE visible
16 Aug ? 09:36:36 46° S 09:37:36 70° WSW 09:41:29 10° NNW visible
17 Aug ? 07:48:14 10° E 07:50:15 14° NE 07:52:16 10° NNE visible
17 Aug ? 09:22:44 47° SSE 09:23:46 85° ENE 09:27:40 10° NNW visible
17 Aug ? 10:57:48 12° W 10:58:28 13° W 11:00:16 10° WNW visible
18 Aug ? 07:35:33 10° ENE 07:36:37 11° NE 07:37:40 10° NE visible
18 Aug ? 09:08:52 41° SE 09:09:59 63° ENE 09:13:49 10° N visible
18 Aug ? 10:43:56 17° W 10:44:29 17° W 10:47:04 10° NW visible
19 Aug ? 08:55:00 34° ESE 08:56:11 46° ENE 08:59:54 10° N visible
19 Aug ? 10:30:04 22° WSW 10:30:31 22° W 10:33:37 10° NW visible
20 Aug ? 08:41:07 27° ESE 08:42:25 35° ENE 08:45:58 10° N visible
20 Aug ? 10:16:12 29° WSW 10:16:35 29° W 10:20:01 10° NNW visible
